User: anonymous   Login
Location: Campillo
(40.8621°N, 4.2488°W)
Time: 03:40:34
(UTC+00:00)
Language:

Cosmos 1709 Rocket - Orbit

View from above orbital plane
View from above orbital plane
View from above satellite
View from above satellite

Ground track
Ground track

The orbit data is extracted from the following two-line orbital elements,

1 16369U 85116B   21207.03002170  .00000039  00000-0  24743-4 0  9997
2 16369  82.9393 312.7810 0034963 281.8318 252.4278 13.76879356788063
Epoch (UTC): 26 July 2021 00:43:13
Eccentricity: 0.0034963
inclination: 82.9393°
perigee height: 949 km
apogee height: 1000 km
right ascension of ascending node: 312.7810°
argument of perigee: 281.8318°
revolutions per day: 13.76879356
mean anomaly at epoch: 252.4278°
orbit number at epoch: 78806

The dashed part of the orbit path shows where the satellite is in the earth's shadow,  

DLR